CAPE
0 0 0 0 0 0 0 0 2 0 0 0 0 0 0 0 0 0 0 0 0 0 0 0 0 0 0 0 0 0 0 0 0 0 1 1 0 0 0 0 0 0 0 0
0 0 0 0 0 0 0 0 0 0 0 0 0 0 0 0 0 0 0 0 0 0 0 0 0 0 0 0 0 0 0 0 1 1 3 1 0 0 0 0 0 0 0 0
2 0 0 0 0 0 0 0 0 0 0 0 0 0 0 0 0 0 5 0 0 0 0 0 0 0 0 0 0 0 0 2 4 2 1 0 0 0 0 0 0 0 0 0
6 8 1 0 0 0 0 0 0 0 0 0 0 0 0 0 8 25 0 0 0 0 0 0 0 0 0 0 0 0 1 3 4 2 0 0 0 0 0 0 0 0 0 0
15 10 0 0 0 0 0 0 2 3 2 10 10 2 12 0 3 3 2 0 0 0 0 0 0 0 0 0 0 0 1 3 1 0 0 0 0 0 0 0 1 1 1 5
24 11 0 0 0 0 11 24 0 0 0 4 12 26 7 0 0 0 0 0 0 0 0 0 0 0 0 0 0 1 2 3 0 0 0 0 1 3 1 0 0 0 0 11
21 25 4 0 0 0 11 2 0 0 0 3 7 20 5 0 0 0 0 0 0 0 0 0 0 0 0 0 0 0 0 0 0 0 0 0 0 1 2 2 0 0 9 3
25 22 13 0 0 0 0 0 0 0 0 1 9 3 11 1 0 0 0 0 0 0 0 0 0 0 0 1 1 0 0 0 0 0 0 0 0 3 1 1 0 2 9 4
4 1 0 0 0 0 0 0 0 0 0 0 1 6 9 0 0 0 0 0 0 0 0 0 0 0 0 0 1 0 0 0 1 0 0 0 1 2 2 1 0 2 5 5
0 0 0 0 0 0 0 0 0 0 0 3 9 5 0 0 0 0 0 0 0 0 0 0 0 0 0 0 0 0 1 2 1 0 1 0 1 1 1 1 2 5 9 7
0 0 0 0 0 0 0 0 0 0 0 0 0 0 0 0 0 0 0 0 0 0 0 0 0 0 0 0 0 0 0 0 0 0 1 4 1 1 0 0 0 7 5 10
0 0 0 0 0 0 0 0 0 0 0 0 0 0 0 0 0 0 0 0 0 0 0 0 0 0 0 0 0 0 1 1 0 0 1 2 2 1 0 0 0 0 0 2
0 0 0 0 0 0 0 0 0 0 0 0 0 0 0 0 0 0 0 0 0 0 0 0 0 0 0 0 0 0 0 0 0 0 0 1 1 1 1 2 0 0 0 0
0 0 0 0 0 0 0 0 0 0 0 0 0 0 0 0 0 0 0 0 0 0 0 0 0 0 2 0 1 0 2 0 0 0 0 0 0 1 1 3 4 4 0 1
0 0 0 0 0 0 0 0 1 2 5 2 3 2 0 0 0 0 1 0 0 1 2 0 0 1 0 0 0 1 0 1 0 0 0 0 0 0 1 4 5 7 9 1
2 6 14 6 2 3 4 6 7 6 3 3 4 1 0 0 1 1 1 0 2 4 3 0 2 3 0 0 0 1 1 0 0 0 0 1 0 0 1 1 2 5 7 7
2 4 4 2 4 2 1 2 3 2 1 5 5 2 1 1 1 2 3 3 2 2 2 1 2 0 0 0 0 1 2 1 0 5 5 4 0 1 2 2 3 7 8 6
0 0 0 1 6 7 5 4 3 2 2 2 3 1 0 1 0 1 1 1 1 1 2 1 1 1 0 1 1 2 2 2 3 5 7 4 6 5 4 4 5 4 3 2
1 0 0 0 0 1 2 4 4 2 0 1 1 1 0 0 1 1 2 1 2 2 2 2 0 1 1 0 1 0 0 2 3 6 6 1 8 9 7 6 4 5 3 2
0 0 0 0 0 0 0 0 1 2 2 1 1 1 1 1 2 2 2 2 2 2 2 1 0 0 0 0 0 3 5 5 4 5 6 5 6 8 6 2 3 7 8 7
1 0 0 0 0 0 0 0 1 2 0 0 0 0 0 2 2 2 2 2 2 1 0 0 0 1 1 0 0 2 2 3 4 4 5 5 4 4 4 5 4 4 4 5
1 8 1 0 0 0 0 0 0 0 0 0 0 0 0 1 1 1 1 1 3 1 1 1 1 1 0 0 1 2 1 2 4 4 7 5 5 4 4 6 6 5 6 5
6 7 1 0 0 1 0 0 0 0 0 0 0 1 1 3 3 2 2 4 2 1 0 0 0 0 0 1 2 3 2 1 1 1 1 2 3 3 3 3 3 3 2 3
3 5 0 0 0 1 2 0 0 0 0 0 0 0 1 3 4 1 1 0 0 0 1 1 0 0 0 1 1 1 1 1 1 1 1 0 1 1 1 1 1 2 1 1
7 9 10 1 0 1 1 1 0 2 1 2 1 1 1 2 1 3 1 1 1 0 1 0 0 0 0 1 1 1 1 1 1 1 1 1 1 1 1 1 1 1 2 2
4 9 20 5 1 2 3 2 1 2 2 2 2 1 2 2 1 1 1 0 0 0 0 0 0 0 0 0 0 0 1 0 0 0 0 0 0 0 0 0 1 1 1 1
0 2 7 3 0 1 3 2 2 2 2 2 1 1 1 1 1 0 0 0 0 0 0 0 0 0 0 0 0 0 0 0 0 0 0 0 0 0 0 0 1 1 1 0
CIN
0 0 0 0 0 0 0 0 0 0 0 0 0 0 0 0 0 0 0 0 0 0 0 0 0 0 0 0 0 0 0 0 0 0 0 0 0 0 0 0 0 0 0 0
0 0 0 0 0 0 0 0 0 0 0 0 0 0 0 0 0 0 0 0 0 0 0 0 0 0 0 0 0 0 0 0 0 0 0 0 0 0 0 0 0 0 0 0
0 0 0 0 0 0 0 0 0 0 0 0 0 0 0 0 0 0 -127 0 0 0 0 0 0 0 0 0 0 0 0 0 0 0 0 0 0 0 0 0 0 0 0 0
0 0 0 0 0 0 0 0 0 0 0 0 0 0 0 0 -134 -83 -7 0 0 0 0 0 0 0 0 0 0 0 0 0 0 0 0 0 0 0 0 0 0 0 0 0
0 0 0 0 0 0 0 0 0 0 -73 -81 -97 -57 -42 0 -16 -12 -80 0 0 0 0 0 0 0 0 0 0 0 0 0 0 0 0 0 0 0 0 0 0 0 0 0
0 0 0 0 0 0 -46 0 0 0 -3 0 -1 -19 -9 0 0 0 0 0 0 0 0 0 0 0 0 0 0 0 0 0 0 0 0 0 0 0 0 0 0 0 0 0
0 0 -5 0 0 0 -6 -5 0 0 0 0 -1 0 -1 0 0 0 0 0 0 0 0 0 0 0 0 0 0 0 0 0 0 0 0 0 0 0 0 0 0 0 0 0
0 0 0 0 0 0 0 0 0 0 0 0 0 0 0 -1 0 0 0 0 0 0 0 0 0 0 0 0 0 0 0 0 0 0 0 0 0 0 0 0 0 0 0 0
-30 -7 0 0 0 0 0 0 0 0 0 0 0 0 0 0 0 0 0 0 0 -39 0 0 0 0 0 0 0 0 0 0 0 0 0 0 0 0 0 0 0 0 0 0
0 0 0 0 0 0 0 0 0 0 0 -4 -3 0 0 0 0 0 0 0 0 0 0 0 0 0 0 0 0 0 0 0 0 0 0 0 0 0 0 0 0 0 0 0
0 0 0 0 0 0 0 0 0 0 0 0 0 0 0 0 0 0 0 0 0 0 0 0 0 0 0 0 0 0 0 0 0 0 0 0 0 0 0 0 0 0 0 0
0 0 0 0 0 0 0 0 0 0 0 0 0 0 0 0 0 0 0 0 0 0 0 0 0 0 0 0 0 0 0 0 0 0 0 0 0 0 0 0 0 0 0 0
0 0 0 0 0 0 0 0 0 0 0 0 0 0 0 0 0 0 0 0 0 0 0 0 0 0 0 0 0 0 0 0 0 0 0 0 0 0 0 0 0 0 0 0
0 0 0 0 0 0 0 0 0 0 0 0 0 0 0 0 0 0 0 0 0 0 0 0 0 0 0 0 0 0 0 0 0 0 0 0 0 0 0 0 0 0 0 0
0 0 0 0 0 0 0 0 -1 0 0 0 0 0 0 0 0 0 0 0 0 0 0 0 0 0 0 0 0 0 0 0 0 0 0 0 0 0 0 0 0 0 0 0
0 0 0 0 0 0 0 0 0 0 0 0 0 0 0 0 0 0 0 0 0 0 0 0 0 0 0 0 0 0 0 0 0 0 0 0 0 0 0 0 0 0 0 0
0 0 0 0 0 0 0 0 0 0 0 0 0 0 0 0 0 0 0 0 0 0 0 0 0 0 0 0 0 0 0 0 0 0 -1 0 0 0 0 0 0 0 0 0
0 0 0 0 0 0 0 0 0 0 0 0 0 0 0 0 0 0 0 0 0 0 0 0 0 0 0 0 0 0 0 0 0 0 0 -1 0 0 0 0 0 0 0 0
-3 -1 0 0 0 0 0 0 0 0 0 0 0 0 0 0 0 0 0 0 0 0 0 0 0 0 0 0 0 0 0 0 0 0 0 0 0 0 0 0 0 0 0 0
0 -25 0 0 0 0 0 0 0 0 0 0 0 0 0 0 0 0 0 0 0 0 0 0 0 0 0 0 0 0 0 0 0 0 0 0 0 0 0 0 0 0 0 0
0 0 0 0 0 0 0 0 0 0 0 0 0 0 0 0 0 0 0 0 0 0 0 0 0 0 0 0 0 0 0 0 0 0 0 0 0 0 0 0 0 0 0 0
0 0 -2 -2 0 0 0 0 0 0 0 0 0 0 0 0 0 0 0 0 0 0 0 0 0 0 0 0 0 0 0 0 0 0 0 0 0 0 0 0 0 0 0 0
0 -1 -2 -2 0 0 0 0 0 0 0 0 0 0 0 0 0 0 0 0 0 0 0 0 0 0 0 0 0 0 0 0 0 0 0 0 0 0 0 0 0 0 0 0
-2 -6 -12 0 0 0 0 0 0 0 0 0 0 0 0 0 0 0 0 0 0 0 0 0 0 0 0 0 0 0 0 0 0 0 0 0 0 0 0 0 0 0 0 0
0 -1 -1 -1 0 0 0 0 0 0 0 0 0 0 0 0 0 0 0 0 0 0 0 0 0 0 0 0 0 0 0 0 0 0 0 0 0 0 0 0 0 0 0 0
0 0 0 -5 -1 0 0 0 0 0 0 0 0 0 0 0 0 0 0 0 0 0 0 0 0 0 0 0 0 0 0 0 0 0 0 0 0 0 0 0 0 0 0 0
0 0 -4 -1 0 0 0 0 0 0 0 0 0 0 0 0 0 0 0 0 0 0 0 0 0 0 0 0 0 0 0 0 0 0 0 0 0 0 0 0 0 0 0 0
Wind_Speed
13 13 16 18 19 14 17 20 19 25 24 21 21 21 19 17 18 16 15 11 8 8 8 7 6 6 5 4 5 9 11 13 15 13 13 14 14 14 13 13 13 12 11 9
16 13 16 22 15 17 19 22 20 25 26 22 20 19 19 18 16 15 9 5 7 8 8 9 8 8 7 6 5 7 11 14 14 14 16 15 14 13 12 12 13 12 12 13
6 11 11 13 15 19 16 17 13 16 17 14 15 17 20 19 15 13 9 6 7 8 8 9 10 9 10 8 6 7 10 12 13 14 14 13 14 15 14 15 14 14 14 14
6 7 9 3 3 5 11 15 12 10 13 14 16 18 17 13 11 10 8 7 6 6 8 10 11 12 11 9 7 6 6 8 10 12 12 13 13 13 14 13 14 12 11 11
4 8 14 14 6 3 2 5 9 7 11 12 13 15 10 7 5 10 9 8 6 7 9 11 12 12 10 10 6 4 4 7 9 9 11 13 13 14 12 13 12 11 10 10
5 6 8 3 5 2 4 9 6 6 9 13 12 9 7 12 14 16 10 6 6 7 9 9 11 9 7 7 6 5 4 7 9 9 11 13 12 13 11 11 12 9 8 12
10 9 8 2 3 2 6 6 8 5 7 12 7 7 13 16 20 16 12 9 4 6 7 9 8 6 5 3 5 3 4 6 8 10 10 11 11 9 11 10 10 9 9 10
7 7 14 5 3 3 6 11 14 12 8 6 10 15 16 13 16 14 12 6 4 5 6 6 6 3 4 4 3 3 3 4 7 9 8 10 12 11 10 10 10 10 10 10
5 5 2 8 8 12 11 14 16 14 12 10 12 11 19 15 15 14 11 6 4 5 5 4 4 3 2 4 4 2 4 4 4 7 8 9 10 10 8 9 8 8 9 9
4 7 13 13 9 10 14 16 13 14 13 14 12 14 16 18 15 12 12 8 5 6 6 1 1 3 5 2 4 4 5 5 6 7 7 7 6 7 7 7 7 8 8 9
14 17 15 17 15 14 11 16 16 14 15 14 14 14 14 17 17 13 11 6 5 5 4 5 4 1 2 3 4 4 6 6 7 6 7 7 5 7 7 8 9 9 9 9
11 15 13 17 16 17 16 18 19 17 16 14 14 16 14 15 14 12 11 5 4 3 2 3 5 4 5 4 3 6 5 5 5 5 5 5 5 4 3 5 9 9 10 9
17 16 17 18 17 21 19 18 17 16 14 15 15 13 16 15 13 9 6 5 4 0 3 3 1 3 4 4 2 2 4 5 4 4 5 6 6 6 6 4 10 10 11 12
16 16 17 19 14 15 12 15 15 16 14 11 10 12 11 10 8 4 4 3 4 4 5 4 4 3 0 1 3 3 1 3 4 5 5 4 5 6 5 7 8 6 10 11
15 15 17 16 17 16 11 8 9 11 10 10 9 11 10 8 1 6 5 4 5 5 6 6 5 5 2 2 3 4 3 3 3 3 4 5 4 5 5 5 5 6 5 8
8 8 9 9 8 8 8 8 6 8 9 11 9 9 8 4 5 6 5 3 3 4 4 4 5 4 2 3 3 3 2 3 3 2 2 3 4 5 5 6 6 6 7 8
4 8 10 10 9 9 9 8 9 10 11 10 9 9 5 2 4 5 6 5 6 5 4 4 4 4 3 4 3 2 2 2 2 1 2 2 3 4 4 4 5 5 5 5
6 3 4 6 8 9 10 10 9 10 10 11 10 7 4 4 4 5 5 6 6 5 5 4 4 3 4 4 3 2 2 2 2 1 0 1 2 2 3 4 4 4 3 4
3 4 2 3 4 6 7 9 10 10 9 8 8 8 6 4 4 7 7 6 6 5 4 3 3 5 5 5 4 3 3 3 2 2 2 3 2 2 2 2 3 3 4 4
10 5 3 3 3 3 5 6 8 8 7 7 6 3 2 4 5 6 6 6 5 3 3 3 4 5 5 6 5 5 6 7 7 6 6 6 5 5 4 5 4 4 4 3
11 8 6 5 5 4 4 4 6 7 6 5 2 3 5 5 6 6 6 5 4 4 5 6 6 5 5 5 5 6 6 7 7 7 7 6 6 6 5 5 5 4 4 3
11 8 7 7 6 7 4 4 4 4 3 2 3 5 6 7 7 8 6 5 4 6 6 6 6 9 8 9 7 8 8 8 7 7 7 7 6 6 6 5 5 5 4 4
9 8 9 9 7 7 4 3 3 2 1 2 4 5 5 5 5 6 6 6 6 8 7 7 9 12 12 8 8 9 9 9 8 8 7 7 7 7 6 7 6 6 6 6
8 8 8 6 5 5 7 3 2 2 3 4 4 4 6 6 7 7 8 10 11 12 10 8 10 13 12 8 8 9 8 8 8 7 7 8 7 6 6 6 6 6 6 7
10 9 8 6 7 6 5 4 3 4 5 6 6 6 7 5 4 6 7 8 11 10 9 12 14 14 9 9 9 9 8 8 7 7 7 7 7 7 7 6 7 6 6 6
11 8 7 7 6 5 4 5 5 5 5 5 5 5 6 7 8 8 8 10 9 10 9 8 8 8 9 9 9 9 8 7 7 8 8 7 7 7 7 6 7 7 7 6
9 9 8 7 5 4 4 6 7 7 6 6 7 5 7 7 9 9 9 8 8 9 8 8 8 9 8 8 9 8 8 8 10 7 7 7 7 6 6 6 6 6 6 7
Wind_Direction
248 257 263 260 263 252 237 245 246 269 259 271 277 284 291 294 292 289 291 288 293 310 320 315 325 334 326 288 253 229 216 213 215 213 201 197 188 182 169 162 161 165 159 149
267 260 258 268 261 249 242 247 252 256 265 266 274 282 282 280 283 288 287 281 291 300 309 316 320 321 318 303 273 227 230 226 213 196 191 191 184 174 162 158 151 159 162 159
270 264 286 279 237 232 240 238 246 257 259 279 285 284 284 288 287 280 255 261 281 300 311 309 310 315 306 296 277 260 240 228 209 196 188 184 180 172 172 167 159 170 162 161
271 286 257 250 166 211 230 253 253 265 278 294 300 298 297 280 275 256 246 263 284 307 316 317 314 306 304 299 287 266 242 233 199 189 180 169 169 173 168 164 162 160 162 163
236 224 285 293 303 298 276 289 39 358 347 342 336 322 305 308 287 295 293 275 284 306 299 305 302 301 294 291 296 277 239 213 182 175 169 168 164 162 159 155 155 158 166 166
197 245 267 51 170 201 210 265 22 13 341 330 328 298 303 337 322 311 292 270 284 305 311 308 310 307 279 278 271 246 217 212 178 163 161 170 159 157 156 157 155 148 156 177
231 245 266 357 317 175 245 331 326 316 334 328 293 285 297 307 305 295 288 287 274 299 305 311 316 305 274 283 249 258 195 191 171 165 156 154 149 149 151 150 143 150 158 176
222 243 256 39 314 255 353 314 305 302 296 342 304 296 307 282 288 310 300 286 251 282 299 318 310 277 284 257 262 210 144 152 172 149 150 150 153 150 150 150 152 154 158 168
222 241 307 299 249 281 288 289 295 293 282 265 293 293 309 308 304 296 294 258 245 254 279 339 347 305 6 303 285 163 134 126 130 129 137 147 147 148 148 153 154 159 171 175
217 259 254 262 256 261 266 271 287 281 283 276 277 278 297 299 294 294 295 270 231 243 248 345 154 128 103 324 268 156 155 154 146 139 135 139 142 149 152 160 161 169 177 181
262 270 275 268 271 287 286 294 297 288 290 285 279 273 277 273 281 285 282 253 214 228 237 223 193 134 119 208 170 164 168 173 172 162 155 151 158 167 171 182 181 179 188 179
257 269 269 280 279 275 278 283 286 289 298 289 278 278 279 269 268 271 272 231 206 218 260 272 224 214 161 158 195 163 170 174 168 155 154 159 160 151 174 176 180 180 175 178
254 264 263 270 274 278 277 278 283 290 291 289 287 286 292 275 268 263 232 176 161 121 22 11 322 168 153 138 160 148 148 170 157 158 166 167 170 173 172 161 177 181 184 185
254 265 272 274 270 278 273 282 290 289 287 286 301 307 312 290 273 224 137 85 72 54 46 67 112 119 276 133 120 118 139 178 161 163 168 175 184 182 175 172 176 183 199 191
264 266 268 274 281 285 297 309 314 314 328 335 338 328 330 313 234 105 92 103 86 70 55 57 71 71 100 162 154 159 151 164 156 150 162 176 170 172 178 173 176 173 162 184
316 312 308 301 328 337 342 339 320 318 328 335 348 348 346 32 99 105 85 89 97 71 62 68 64 22 41 106 122 120 119 129 135 150 161 173 179 179 179 182 176 180 188 187
13 2 354 357 351 345 339 336 328 329 328 325 336 337 328 141 121 111 100 89 92 95 78 73 57 24 39 56 69 82 95 102 129 152 200 195 182 188 180 178 179 185 189 169
41 20 348 335 329 329 332 332 329 329 325 317 311 306 285 240 185 143 130 119 110 89 69 54 47 51 54 60 64 84 107 122 118 107 156 193 192 164 167 175 177 179 168 173
359 348 325 301 312 320 325 325 320 314 305 297 295 289 266 217 169 139 134 126 116 98 58 55 58 63 65 57 65 65 76 83 92 96 87 107 110 106 128 140 144 146 150 150
337 309 248 269 279 278 303 304 301 304 304 311 315 323 80 94 115 116 105 90 71 76 92 82 90 77 66 58 59 75 82 81 80 75 73 76 72 72 76 76 86 94 110 126
343 332 337 332 315 294 272 299 313 318 319 320 343 92 103 102 104 115 119 103 56 69 83 75 84 80 72 80 71 69 73 76 76 70 65 65 68 65 63 65 71 72 80 80
335 333 331 326 303 296 292 308 317 310 326 9 74 103 107 105 98 82 62 87 84 75 81 72 71 69 69 74 73 73 70 68 65 67 64 60 59 61 60 55 55 54 49 43
323 316 315 312 301 295 300 298 292 246 170 139 132 121 117 116 118 119 107 58 69 69 72 62 68 71 69 70 71 72 68 66 63 59 55 53 50 50 51 47 46 42 40 37
307 308 303 303 299 283 287 273 259 185 137 115 105 106 127 118 90 82 89 81 76 72 65 61 67 70 73 73 73 72 70 68 66 63 63 59 55 54 50 46 48 41 40 38
305 296 290 289 295 282 267 194 159 140 119 102 87 75 77 62 102 102 93 85 77 78 73 58 63 65 68 69 69 69 68 65 64 69 64 62 58 54 51 50 47 43 47 43
315 302 298 281 279 284 261 189 184 163 146 122 87 79 78 82 89 90 85 87 82 83 74 60 56 64 67 69 71 68 66 64 63 63 66 62 59 57 52 50 47 45 44 44
318 310 302 298 280 273 250 203 183 170 156 139 114 97 95 93 92 94 91 87 83 81 79 71 63 64 71 72 71 68 66 65 52 58 57 59 56 55 51 51 50 50 49 45